1998-067JT

Last updated on Sun Jun 12 2016 01:37:00 GMT+0000 (Coordinated Universal Time)

1 41569U 98067JT 16163.80334906 .00030139 00000-0 43042-3 0 9997 2 41569 51.6456 84.7982 0002037 95.5742 298.9582 15.55992362 1670

Satellite not in orbit

1998-067JT